Welcome to our new website - Welkom op onze vernieuwde website - Bienvenue sur notre nouveau site web - Willkommen auf unserer neuen Website
Check our progress frequently. Prüfen Sie unsere Fortschritte regelmäßig. Consultez notre progression fréquemment. Komt u straks nog eens terug
Het weer levert geen direct gevaar op.    Er zijn geen waarschuwingen afgegeven.

Regen radar Meer informatie rain snow radar


Bezoek ook deze websites:

Template documentation
and downloads

And another site


U vindt ons ook hier:

UK Metoffice

WeatherCloud

Weather Underground

AWEKAS



Select another period ( hide this area )

Eenheden Periode Custom range Directly to
Metrisch Engels Beide
Dagelijkse Wekelijkse Maandelijkse Jaarlijkse
use both date-selectors for a custom range
previous Dag
With this date

WeatherUnderground graphs for this period ( click here )


Warning: Division by zero in /customers/a/f/b/meteoassenede.be/httpd.www/weather28/wu/WU-History4.php on line 835
Dagelijkse Samenvatting Maandag 06 juli 2020
Tijd Temp. ( °C ) Dew pt. ( °C ) Wind ( km/h ) van Windvlaag ( km/h ) Luchtdruk ( hPa ) Humid.( % ) Rainrate ( cm ) Zonneschijn ( W/m2 )
Hoog14,3 11,4 14,0 WZW ( 250/326 ) 23,0 1013,2 87 - 0
Gemiddeld13,8 11,2 11,2 WZW #23/29 16,4 1013,0 85 - NAN #0/29
Laag13,3 11,1 6,0   11,0 1012,5 82 -  
Dagelijkse Tabular details for Maandag 06 juli 2020
Tijd Temp. ( °C ) Dew pt. ( °C ) Wind ( km/h ) van Windvlaag ( km/h ) Luchtdruk ( hPa ) Humid.( % ) Rainrate ( cm ) Zonneschijn ( W/m2 )
00:04 14,3 11,3 13,0 WZW 15,0 1012,5 82 - -
00:09 14,3 11,3 13,0 WZW 23,0 1012,5 82 - -
00:14 14,2 11,2 14,0 WZW 23,0 1012,5 82 - -
00:19 14,2 11,2 14,0 WZW 23,0 1012,9 82 - -
00:24 14,2 11,2 10,0 WZW 16,0 1012,9 82 - -
00:29 14,1 11,3 13,0 Westen 16,0 1012,9 83 - -
00:34 14,1 11,3 10,0 WZW 18,0 1012,9 83 - -
00:39 14,1 11,3 14,0 Westen 18,0 1012,9 83 - -
00:44 14,0 11,2 10,0 WZW 13,0 1012,9 83 - -
00:49 14,0 11,2 11,0 Westen 13,0 1012,9 83 - -
00:54 13,9 11,2 10,0 WZW 16,0 1012,9 84 - -
00:59 13,9 11,2 14,0 WZW 16,0 1012,9 84 - -
01:04 13,8 11,1 11,0 WZW 16,0 1012,9 84 - -
01:09 13,8 11,1 10,0 WZW 16,0 1012,9 84 - -
01:14 13,8 11,1 11,0 Westen 15,0 1012,9 84 - -
01:19 13,7 11,2 14,0 Westen 16,0 1012,9 85 - -
01:24 13,7 11,2 11,0 WZW 16,0 1013,2 85 - -
01:29 13,7 11,2 11,0 WZW 16,0 1013,2 85 - -
01:34 13,6 11,3 13,0 Westen 16,0 1013,2 86 - -
01:39 13,6 11,3 10,0 WZW 16,0 1013,2 86 - -
01:44 13,6 11,3 10,0 WZW 16,0 1013,2 86 - -
01:49 13,5 11,2 14,0 WZW 15,0 1013,2 86 - -
01:54 13,5 11,4 13,0 WZW 18,0 1013,2 87 - -
01:59 13,5 11,4 6,0 WZW 18,0 1013,2 87 - -
02:04 13,4 11,3 11,0 WZW 16,0 1012,9 87 - -
02:09 13,4 11,3 13,0 WZW 18,0 1012,9 87 - -
02:14 13,4 11,3 6,0 WZW 11,0 1013,2 87 - -
02:19 13,4 11,3 8,0 WZW 15,0 1013,2 87 - -
02:24 13,3 11,2 8,0 WZW 13,0 1013,2 87 - -
Dagelijkse Samenvatting Maandag 06 juli 2020
Tijd Temp. ( °C ) Dew pt. ( °C ) Wind ( km/h ) van Windvlaag ( km/h ) Luchtdruk ( hPa ) Humid.( % ) Rainrate ( cm ) Zonneschijn ( W/m2 )
Hoog14,3 11,4 14,0 WZW ( 250/326 ) 23,0 1013,2 87 - 0
Gemiddeld13,8 11,2 11,2 WZW #23/29 16,4 1013,0 85 - NAN #0/29
Laag13,3 11,1 6,0   11,0 1012,5 82 -  
Dagelijkse Tabular details for Maandag 06 juli 2020
Tijd Temp. ( °C ) Dew pt. ( °C ) Wind ( km/h ) van Windvlaag ( km/h ) Luchtdruk ( hPa ) Humid.( % ) Rainrate ( cm ) Zonneschijn ( W/m2 )
00:04 14,3 11,3 13,0 WZW 15,0 1012,5 82 - -
00:09 14,3 11,3 13,0 WZW 23,0 1012,5 82 - -
00:14 14,2 11,2 14,0 WZW 23,0 1012,5 82 - -
00:19 14,2 11,2 14,0 WZW 23,0 1012,9 82 - -
00:24 14,2 11,2 10,0 WZW 16,0 1012,9 82 - -
00:29 14,1 11,3 13,0 Westen 16,0 1012,9 83 - -
00:34 14,1 11,3 10,0 WZW 18,0 1012,9 83 - -
00:39 14,1 11,3 14,0 Westen 18,0 1012,9 83 - -
00:44 14,0 11,2 10,0 WZW 13,0 1012,9 83 - -
00:49 14,0 11,2 11,0 Westen 13,0 1012,9 83 - -
00:54 13,9 11,2 10,0 WZW 16,0 1012,9 84 - -
00:59 13,9 11,2 14,0 WZW 16,0 1012,9 84 - -
01:04 13,8 11,1 11,0 WZW 16,0 1012,9 84 - -
01:09 13,8 11,1 10,0 WZW 16,0 1012,9 84 - -
01:14 13,8 11,1 11,0 Westen 15,0 1012,9 84 - -
01:19 13,7 11,2 14,0 Westen 16,0 1012,9 85 - -
01:24 13,7 11,2 11,0 WZW 16,0 1013,2 85 - -
01:29 13,7 11,2 11,0 WZW 16,0 1013,2 85 - -
01:34 13,6 11,3 13,0 Westen 16,0 1013,2 86 - -
01:39 13,6 11,3 10,0 WZW 16,0 1013,2 86 - -
01:44 13,6 11,3 10,0 WZW 16,0 1013,2 86 - -
01:49 13,5 11,2 14,0 WZW 15,0 1013,2 86 - -
01:54 13,5 11,4 13,0 WZW 18,0 1013,2 87 - -
01:59 13,5 11,4 6,0 WZW 18,0 1013,2 87 - -
02:04 13,4 11,3 11,0 WZW 16,0 1012,9 87 - -
02:09 13,4 11,3 13,0 WZW 18,0 1012,9 87 - -
02:14 13,4 11,3 6,0 WZW 11,0 1013,2 87 - -
02:19 13,4 11,3 8,0 WZW 15,0 1013,2 87 - -
02:24 13,3 11,2 8,0 WZW 13,0 1013,2 87 - -

Download your copy of this data-set  here

Our weather-data as stored at Weather Underground. Script ontwikkeld door Jim McMurry. Aangepast voor de template door Leuven-Template.eu

Apparatuur in gebruik:

Weerstation
Davis Vantage Pro2

Weerprogramma
Meteobridge

Weercomputer
TP-Link TL-MR3020

Webleverancier
One.com

Davis Vantage Pro2

Meteobridge

TP-Link TL-MR3020

One.com